This is the latest recevied weather packets stored in our database for station/object NK7E. If no packets are shown the sender has not sent any weather packets the latest 10 day(s).
| Time | Temp. | Humidity | Pressure | Rain* | Wind** | Luminosity | Snow |
|---|---|---|---|---|---|---|---|
| 1778013016 | 23.33° C | 31% | 1011.4 hPa | 0 mm | - | 1073 W/m² | - |
| 1778012415 | 23.33° C | 33% | 1011.5 hPa | 0 mm | - | 1283 W/m² | - |
| 1778011815 | 23.33° C | 39% | 1011.5 hPa | 0 mm | - | 1105 W/m² | - |
| 1778011216 | 21.67° C | 39% | 1011.5 hPa | 0 mm | - | 1085 W/m² | - |
| 1778010616 | 21.11° C | 50% | 1011.7 hPa | 0 mm | - | 409 W/m² | - |
| 1778010015 | 20.56° C | 52% | 1011.6 hPa | 0 mm | - | 270 W/m² | - |
| 1778009416 | 21.11° C | 51% | 1011.8 hPa | 0 mm | - | 238 W/m² | - |
| 1778008816 | 21.11° C | 51% | 1011.8 hPa | 0 mm | - | 525 W/m² | - |
| 1778008216 | 21.67° C | 49% | 1012 hPa | 0 mm | - | 253 W/m² | - |
| 1778007616 | 21.11° C | 51% | 1012.1 hPa | 0 mm | - | 1172 W/m² | - |
| 1778007016 | 21.11° C | 52% | 1012.2 hPa | 0 mm | - | 767 W/m² | - |
| 1778006415 | 20.56° C | 54% | 1012.6 hPa | 0 mm | - | 929 W/m² | - |
| 1778005815 | 20° C | 55% | 1012.5 hPa | 0 mm | - | 1232 W/m² | - |
| 1778005215 | 20° C | 56% | 1012.7 hPa | 0 mm | - | 325 W/m² | - |
| 1778004615 | 19.44° C | 59% | 1012.7 hPa | 0 mm | - | 354 W/m² | - |
| 1778004020 | 20° C | 58% | 1012.8 hPa | 0 mm | - | 368 W/m² | - |
| 1778003416 | 19.44° C | 59% | 1012.8 hPa | 0 mm | - | 817 W/m² | - |
| 1778002815 | 19.44° C | 59% | 1012.8 hPa | 0 mm | - | 307 W/m² | - |
| 1778002216 | 18.89° C | 62% | 1012.8 hPa | 0 mm | - | 759 W/m² | - |
| 1778001615 | 18.33° C | 64% | 1012.8 hPa | 0 mm | - | 382 W/m² | - |
| 1778001015 | 18.33° C | 64% | 1012.8 hPa | 0 mm | - | 360 W/m² | - |
| 1778000416 | 18.33° C | 65% | 1012.7 hPa | 0 mm | - | 484 W/m² | - |
| 1777999815 | 17.78° C | 65% | 1012.8 hPa | 0 mm | - | 429 W/m² | - |
| 1777999215 | 17.78° C | 70% | 1012.7 hPa | 0 mm | - | 454 W/m² | - |
| 1777998615 | 16.67° C | 75% | 1012.9 hPa | 0 mm | - | 774 W/m² | - |
* Rain latest hour (hover to see other rain measurements)
** Current wind speed in m/s (hover to see current wind gust speed)